Regional Weather Roundup
Issued by NWS

Home | Current Version | Previous Version | Text Only | Print | Product List | Glossary On
Versions: 1 2 3 4 5 6 7 8 9 10 11 12 13 14 15 16 17 18 19 20 21 22 23 24 25 26 27 28 29 30 31 32 33 34 35 36 37 38 39 40 41 42 43 44 45 46 47 48 49 50
000
ASUS43 KDTX 201301
RWRMI
MICHIGAN HOURLY REGIONAL WEATHER ROUNDUP
NATIONAL WEATHER SERVICE DETROIT/PONTIAC MI
900 AM EDT SUN APR 20 2014

NOTE: "FAIR" INDICATES FEW OR NO CLOUDS BELOW 12,000 FEET WITH NO
SIGNIFICANT WEATHER AND/OR OBSTRUCTION TO VISIBILITY.

MIZ047>049-052>055-059>063-066>070-074>076-081>083-201400-
SOUTHEAST LOWER MICHIGAN

CITY           SKY/WX    TMP DP  RH WIND       PRES   REMARKS
ADRIAN         SUNNY     44  35  70 SE5       30.31F
ALMA           PTSUNNY   42  32  67 S5        30.29R
ANN ARBOR      SUNNY     45  33  63 SE7       30.30F
BAD AXE        MOSUNNY   44  31  60 S8        30.32S
CARO           PTSUNNY   46  32  59 SE7       30.29F
DETROIT CITY   MOSUNNY   46  33  60 SE5       30.32F
DETROIT        PTSUNNY   45  33  63 CALM      30.33S
FLINT          PTSUNNY   45  32  60 S9        30.30S
GROSSE ILE     SUNNY     45  36  70 SE5       30.31S
HILLSDALE      SUNNY     47  32  57 S7        30.28S
HOWELL         MOSUNNY   45  32  60 SE7       30.29S

CITY           SKY/WX    TMP DP  RH WIND       PRES   REMARKS
JACKSON        MOSUNNY   45  32  60 SE8       30.28S
LAMBERTVILLE   SUNNY     46  37  71 SE3       30.31S
LANSING        MOSUNNY   46  29  51 SE7       30.29S
LAPEER         FAIR      42  32  69 SE6       30.31S
MASON          MOSUNNY   44  32  63 SE3       30.29R
MONROE         SUNNY     46  37  71 E5        30.30S
MT. CLEMENS    PTSUNNY   44  36  75 SE7       30.31S
PONTIAC        PTSUNNY   44  31  60 SE8       30.30S
PORT HOPE        N/A     43  33  68 SE6       30.30S
PORT HURON     MOSUNNY   41  34  75 S3        30.33S
TRI CITIES     PTSUNNY   44  33  65 SE5       30.30S
TROY           MOSUNNY   43  32  65 CALM      30.32S
SAGINAW HB     PTSUNNY   43  32  65 S6        30.29S
YPSILANTI      SUNNY     47  34  60 SE5       30.31F
$$
MIZ043>046-050>051-056>058-064>065-071>073-077>080-201400-
SOUTHWEST LOWER MICHIGAN

CITY           SKY/WX    TMP DP  RH WIND       PRES   REMARKS
BATTLE CREEK   MOSUNNY   46  30  53 S8        30.28R
BENTON HARBOR  MOSUNNY   47  31  53 SE15G21   30.24S
BIG RAPIDS     CLOUDY    45  30  55 S8        30.26S
COLDWATER      MOSUNNY   46  31  56 S10       30.27F
FREMONT        FAIR      46  27  48 S7        30.25S
HOLLAND        MOSUNNY   49  30  48 SE5       30.26R
GRAND RAPIDS   PTSUNNY   48  29  47 S6        30.27R
IONIA          FAIR      43  31  63 S7        30.26S
KALAMAZOO      MOSUNNY   46  32  58 S9        30.28R
LUDINGTON      CLOUDY    49  30  48 S6        30.23S
MARSHALL       MOSUNNY   46  31  56 SE8       30.27S
MOUNT PLEASANT PTSUNNY   43  34  71 SE5       30.28S
MUSKEGON       PTSUNNY   48  28  46 SE8       30.25S
SOUTH HAVEN    MOSUNNY   48  28  45 S9        30.25S
$$
MIZ016>042-201400-
NORTHERN LOWER MICHIGAN

CITY           SKY/WX    TMP DP  RH WIND       PRES   REMARKS
ALPENA         PTSUNNY   44  32  62 S12       30.29F
BEAVER ISLAND  MIX PCPN  40  36  85 S12       30.19S WCI  33
BELLAIRE       CLOUDY    47  30  51 S7        30.24S
CADILLAC       CLOUDY    45  28  52 SE6       30.24R
CHARLEVOIX     LGT RAIN  44  36  72 SE7       30.25F
FRANKFORT      LGT RAIN  49  28  44 SE6       30.21F
GAYLORD        CLOUDY    42  28  57 S13       30.25S
GRAYLING       PTSUNNY   45  28  51 S6        30.27S
HARBOR SPRINGS LGT RAIN  41  39  91 CALM      30.23S
HOUGHTON LAKE  MOSUNNY   45  29  53 S9        30.28R
MANISTEE       CLOUDY    48  25  40 SE3       30.24R
OSCODA         SUNNY     44  34  69 CALM      30.30F
PELLSTON       LGT RAIN  39  36  89 SE7       30.23F WCI  34
ROGERS CITY    CLOUDY    41  33  72 S9        30.27F
TRAVERSE CITY  CLOUDY    50  27  40 SE5       30.22S
$$
MIZ007>008-015-201400-
EASTERN UPPER MICHIGAN

CITY           SKY/WX    TMP DP  RH WIND       PRES   REMARKS
KINROSS        CLOUDY    36  36 100 SE12      30.20F WCI  27
MACKINAC ISLAN MIX PCPN  37  36  97 S13G18    30.21F WCI  29
NEWBERRY       LGT RAIN  38  37  94 S8G17     30.15F WCI  32
S. S. MARIE    LGT RAIN  35  33  92 E9        30.19F FOG     WCI  28
MUNISING         N/A     41  36  82 S12G23    30.10S
$$
MIZ004>006-011>014-085-201400-
CENTRAL UPPER MICHIGAN

CITY           SKY/WX    TMP DP  RH WIND       PRES   REMARKS
MANISTIQUE     LGT RAIN  36  35  96 S10       30.16F WCI  29
ESCANABA       CLOUDY    37  34  87 SW10      30.13R WCI  30
MENOMINEE      CLOUDY    41  37  87 S8        30.14S
SAWYER-GWINN   CLOUDY    37  37 100 S8        30.09S FOG     WCI  31
$$
MIZ001>003-009>011-084-201400-
WESTERN UPPER MICHIGAN

CITY           SKY/WX    TMP DP  RH WIND       PRES   REMARKS
IRON MOUNTAIN  CLOUDY    44  41  89 SE5       30.09R FOG
HOUGHTON       SUNNY     43  35  73 S3        30.02S
COPPER HARBOR    N/A     49  37  63 SW9G18    30.01S
IRONWOOD       PTSUNNY   46  39  76 CALM      30.01R
$$

ABBREVIATIONS USED IN REMARKS
   TC - TEMPERATURE IN CELSIUS
  WCI - WIND CHILL INDEX
   HX - HEAT INDEX
  VSB - VISIBILITY




USA.gov is the U.S. government's official web portal to all federal, state and local government web resources and services.